7 * 24
多渠道服务支持
STARLINK-11398是美国SpaceX公司星链星座的成员,于2024年11月9日发射升空。星链计划旨在近地轨道构建数万颗卫星的巨型星座,为全球提供高速宽带互联网接入,尤其可赋能网络基础设施匮乏区域。作为后续补网卫星,该卫星将助力提升星座的覆盖密度与服务稳定性,推动全球无缝网络覆盖目标的实现。
美国
(US)
| 数据来源 | 国际轨道数据 |
| 星历时间: | 2026-09-10T06:30:14+0800 1天前 查看轨道信息 |
| 半长轴: | 6737.893km |
| 偏心率: | 0.0000935 |
| 轨道倾角: | 53.160° |
| 近地点辐角 | 109.226° |
| 升交点赤经 | 167.929° |
| 平近点角 | 250.886° |
| 近地点: | 359.126km |
| 远地点: | 360.386km |
| 周期: | 91.737分钟 |
| 每日圈数: | 15.696999 |
| 事件ID | 空间交会对象 | 最接近时刻(TCA) | 交会距离 | 交会风险概率(CRP) | 交会风险指数(CRI) | 操作 |
|---|---|---|---|---|---|---|
| CDM_260913-123006-188206-201021 |
STARLINK-11398
(61882)
STARLINK-11326
(62010) | 2026-09-13T 12:30:58+0000 |
2.276 km
极远距离 | 1.073384E-6 低风险 | 0.36 |